Stations météo

réclame
Mon MeteoGroup
Antwerpen, Belgique (6450): Température de l'air & dewpoint: 18.11.2017 15:00:00 - 24.11.2017 15:00:00 (CET)Antwerpen, Belgique (6450): Vitesse du vent & gusts: 18.11.2017 15:00:00 - 24.11.2017 15:00:00 (CET)Antwerpen, Belgique (6450): Direction du vent: 18.11.2017 15:00:00 - 24.11.2017 15:00:00 (CET)Antwerpen, Belgique (6450): reduced air pressure: 18.11.2017 15:00:00 - 24.11.2017 15:00:00 (CET)Antwerpen, Belgique (6450): visibility: 18.11.2017 15:00:00 - 24.11.2017 15:00:00 (CET)
Date & Time tt [°C] td [°C] ff [km/h] ff [knt] fx [km/h] fx [knt] dd ppp [hPa] vv [km]
24.11.2017 15:00:00 9,6 4,9 13 7 25 14 WNW 1011,6 10
24.11.2017 14:00:00 10,3 4,9 15 8 25 14 WSW 1011,4 10
24.11.2017 13:00:00 9,4 5,2 13 7 - - W 1011,4 10
24.11.2017 12:00:00 8,9 5,6 11 6 22 12 W 1011,2 10
24.11.2017 11:00:00 8,7 6,3 11 6 14 8 W 1010,6 10
24.11.2017 10:00:00 7,6 5,7 9 5 - - W 1009,9 10
24.11.2017 09:00:00 7,8 5,6 8 4 14 8 W 1009,2 10
24.11.2017 08:00:00 7,6 6,1 9 5 14 8 W 1007,8 8
24.11.2017 07:00:00 7,5 5,8 8 4 - - W 1007,0 10
24.11.2017 06:00:00 7,2 5,9 9 5 14 8 SE 1005,6 10
24.11.2017 05:00:00 7,7 6,2 9 5 14 8 WNW 1007,0 5
24.11.2017 04:00:00 8,4 6,7 4 2 - - - 1007,0 9
24.11.2017 03:00:00 8,8 6,9 5 3 14 8 WSW 1007,8 6
24.11.2017 02:00:00 9,2 6,2 11 6 14 8 S 1007,9 10
24.11.2017 01:00:00 9,2 6,0 9 5 - - SSW 1008,6 10
24.11.2017 00:00:00 9,6 6,2 13 7 18 10 SSW 1008,7 10
23.11.2017 23:00:00 9,4 6,0 11 6 22 12 SSW 1009,1 10
23.11.2017 22:00:00 9,7 5,3 13 7 - - SSW 1009,1 10
23.11.2017 21:00:00 9,4 5,3 13 7 22 12 SSW 1008,8 10
23.11.2017 20:00:00 9,6 4,7 13 7 22 12 SSW 1008,1 10
23.11.2017 19:00:00 10,2 4,6 13 7 - - SSW 1007,5 10
23.11.2017 18:00:00 11,1 5,6 16 9 32 18 WSW 1006,9 10
23.11.2017 17:00:00 11,7 5,9 21 11 40 21 WSW 1005,8 10
23.11.2017 16:00:00 12,4 7,0 22 12 - - WSW 1004,9 10
23.11.2017 15:00:00 12,7 7,3 21 11 61 33 W 1003,6 10
23.11.2017 14:00:00 12,6 9,8 35 19 61 33 W 1002,3 7
23.11.2017 13:00:00 15,5 9,6 29 16 - - SW 1001,1 10
23.11.2017 12:00:00 15,2 9,0 29 16 54 29 SW 1000,4 10
23.11.2017 11:00:00 14,5 9,0 29 16 68 37 SW 999,7 10
23.11.2017 10:00:00 14,1 8,3 37 20 - - SW 998,7 10
23.11.2017 09:00:00 14,1 6,3 34 18 61 33 SSW 997,2 10
23.11.2017 08:00:00 14,1 5,9 37 20 76 41 SSW 996,4 10
23.11.2017 07:00:00 13,9 5,0 34 18 - - S 996,2 10
23.11.2017 06:00:00 13,9 4,3 28 15 50 27 S 996,8 10
23.11.2017 05:00:00 13,7 3,7 31 17 54 29 SSW 997,3 10
23.11.2017 04:00:00 13,6 3,7 24 13 - - S 998,0 10
23.11.2017 03:00:00 13,1 3,2 22 12 36 19 S 998,2 10
23.11.2017 02:00:00 13,0 3,3 21 11 40 21 S 998,6 10
23.11.2017 01:00:00 12,9 3,3 26 14 - - SSW 999,4 10
23.11.2017 00:00:00 13,1 3,1 28 15 43 23 SSW 999,9 10
22.11.2017 23:00:00 12,3 2,9 21 11 36 19 S 1000,5 10
22.11.2017 22:00:00 11,9 3,1 18 10 - - S 1001,1 10
22.11.2017 21:00:00 11,6 3,5 18 10 25 14 S 1001,4 10
22.11.2017 20:00:00 11,4 3,9 16 9 29 16 S 1002,2 10
22.11.2017 19:00:00 11,3 4,2 16 9 - - S 1002,8 10
22.11.2017 18:00:00 11,6 4,6 21 11 40 21 S 1003,2 10
22.11.2017 17:00:00 12,6 4,7 21 11 36 19 S 1003,6 10
22.11.2017 16:00:00 13,7 5,5 24 13 - - S 1004,4 10
22.11.2017 15:00:00 14,1 6,2 18 10 36 19 S 1004,9 10
22.11.2017 14:00:00 13,3 6,5 22 12 40 21 SSW 1005,8 10
22.11.2017 13:00:00 12,8 7,0 26 14 - - SSW 1006,3 10
22.11.2017 12:00:00 12,4 7,0 22 12 40 21 SSW 1007,2 10
22.11.2017 11:00:00 11,0 7,1 24 13 43 23 SSW 1007,5 10
22.11.2017 10:00:00 10,7 7,1 24 13 - - SSW 1007,6 10
22.11.2017 09:00:00 10,9 7,5 24 13 40 21 SSW 1007,7 10
22.11.2017 08:00:00 11,0 7,5 18 10 36 19 SSW 1007,5 10
22.11.2017 07:00:00 11,4 7,6 22 12 - - SW 1007,2 10
22.11.2017 06:00:00 11,4 7,6 24 13 40 21 SSW 1007,6 10
22.11.2017 05:00:00 11,3 7,6 24 13 43 23 SSW 1007,9 10
22.11.2017 04:00:00 11,4 7,4 22 12 - - SW 1008,2 10
22.11.2017 03:00:00 11,3 7,4 24 13 43 23 SW 1008,5 10
22.11.2017 02:00:00 11,2 7,5 26 14 43 23 SSW 1008,6 10
22.11.2017 01:00:00 11,0 7,5 24 13 - - SSW 1009,3 10
22.11.2017 00:00:00 10,7 7,5 22 12 40 21 SSW 1009,6 10
21.11.2017 23:00:00 10,7 7,4 24 13 43 23 SSW 1009,6 10
21.11.2017 22:00:00 10,7 7,3 24 13 - - SSW 1010,2 10
21.11.2017 21:00:00 10,8 7,5 24 13 43 23 SSW 1010,6 10
21.11.2017 20:00:00 10,7 7,4 21 11 36 19 SSW 1010,9 10
21.11.2017 19:00:00 10,5 7,6 22 12 - - SSW 1011,2 10
21.11.2017 18:00:00 10,5 7,7 18 10 40 21 SSW 1011,5 10
21.11.2017 17:00:00 10,6 8,0 22 12 36 19 SW 1011,6 10
21.11.2017 16:00:00 11,1 8,2 22 12 - - SW 1012,2 10
21.11.2017 15:00:00 11,2 8,6 22 12 36 19 SW 1012,2 10
21.11.2017 14:00:00 11,2 8,9 21 11 40 21 SW 1012,4 10
21.11.2017 13:00:00 11,2 9,1 21 11 - - SW 1012,8 10
21.11.2017 12:00:00 11,3 9,7 22 12 43 23 WSW 1013,1 9
21.11.2017 11:00:00 11,5 10,1 22 12 32 18 WSW 1013,2 4,2
21.11.2017 10:00:00 11,9 10,6 16 9 - - WSW 1012,8 2,7
21.11.2017 09:00:00 12,0 10,6 18 10 29 16 WSW 1012,5 2,0
21.11.2017 08:00:00 11,9 10,6 15 8 25 14 WSW 1012,3 2,4
21.11.2017 07:00:00 11,8 10,6 15 8 - - WSW 1012,3 3,2
21.11.2017 06:00:00 11,7 10,4 13 7 22 12 WSW 1012,4 2,9
21.11.2017 05:00:00 11,6 10,4 11 6 25 14 WSW 1012,5 2,6
21.11.2017 04:00:00 11,9 10,3 13 7 - - WSW 1012,6 5
21.11.2017 03:00:00 11,9 10,3 13 7 25 14 SW 1012,9 6
21.11.2017 02:00:00 11,8 10,2 13 7 22 12 WSW 1012,8 9
21.11.2017 01:00:00 11,9 10,2 15 8 - - WSW 1012,9 10
21.11.2017 00:00:00 11,1 9,7 11 6 25 14 WSW 1012,8 7
20.11.2017 23:00:00 10,9 9,5 15 8 25 14 SW 1012,5 8
20.11.2017 22:00:00 10,8 9,4 16 9 - - SW 1012,6 6
20.11.2017 21:00:00 10,5 9,2 16 9 29 16 WSW 1012,7 6
20.11.2017 20:00:00 10,2 8,9 21 11 32 18 WSW 1012,7 9
20.11.2017 19:00:00 10,3 9,0 18 10 - - WSW 1012,4 2,6
20.11.2017 18:00:00 9,9 8,7 16 9 32 18 SW 1012,5 5
20.11.2017 17:00:00 9,8 8,5 21 11 36 19 SW 1013,0 3,6
20.11.2017 16:00:00 8,6 7,2 21 11 - - SW 1013,4 8
20.11.2017 15:00:00 7,6 6,4 18 10 32 18 SW 1014,0 2,4
20.11.2017 14:00:00 7,0 5,6 21 11 32 18 SW 1015,3 3,4
20.11.2017 13:00:00 6,5 5,2 16 9 - - SW 1016,2 4,5
20.11.2017 12:00:00 5,4 4,1 18 10 29 16 SSW 1017,1 2,3
20.11.2017 11:00:00 4,8 3,1 18 10 25 14 SSW 1018,1 4,5
20.11.2017 10:00:00 4,4 2,2 15 8 - - SSW 1019,1 7
20.11.2017 09:00:00 4,2 1,9 13 7 18 10 S 1019,5 10
20.11.2017 08:00:00 4,5 1,1 11 6 14 8 SSW 1020,7 10
20.11.2017 07:00:00 4,3 1,1 11 6 - - SSW 1020,9 10
20.11.2017 06:00:00 4,4 1,3 13 7 18 10 SSW 1020,9 10
20.11.2017 05:00:00 4,3 1,1 15 8 18 10 SW 1021,2 10
20.11.2017 04:00:00 4,3 1,5 11 6 - - SW 1021,8 10
20.11.2017 03:00:00 4,3 1,7 9 5 18 10 SW 1022,2 10
20.11.2017 02:00:00 4,3 1,7 11 6 18 10 SW 1022,6 10
20.11.2017 01:00:00 4,3 1,6 15 8 - - WSW 1023,3 10
20.11.2017 00:00:00 4,0 1,7 13 7 18 10 WSW 1023,3 10
19.11.2017 23:00:00 4,2 1,9 9 5 18 10 WSW 1023,3 10
19.11.2017 22:00:00 4,4 2,0 13 7 - - WSW 1023,4 10
19.11.2017 21:00:00 5,2 2,3 13 7 22 12 WSW 1022,9 10
19.11.2017 20:00:00 6,2 2,7 15 8 22 12 W 1022,6 10
19.11.2017 19:00:00 6,4 2,8 13 7 - - W 1022,5 10
19.11.2017 18:00:00 6,9 3,0 15 8 25 14 W 1022,0 10
19.11.2017 17:00:00 7,6 3,6 15 8 22 12 W 1021,6 10
19.11.2017 16:00:00 7,3 3,7 11 6 - - WNW 1021,5 10
19.11.2017 15:00:00 8,9 3,7 24 13 36 19 WNW 1020,9 10
19.11.2017 14:00:00 8,7 4,4 16 9 32 18 W 1021,0 10
19.11.2017 13:00:00 7,2 4,1 16 9 - - W 1020,9 10
19.11.2017 12:00:00 7,3 4,8 13 7 29 16 W 1020,9 10
19.11.2017 11:00:00 6,7 4,2 11 6 22 12 WSW 1020,4 10
19.11.2017 10:00:00 5,9 3,8 9 5 - - W 1019,9 7
19.11.2017 09:00:00 5,6 3,1 11 6 18 10 NW 1019,7 7
19.11.2017 08:00:00 5,4 2,6 11 6 18 10 WSW 1018,7 10
19.11.2017 07:00:00 5,7 2,5 11 6 - - WNW 1018,5 10
19.11.2017 06:00:00 5,5 1,6 13 7 29 16 W 1018,0 10
19.11.2017 05:00:00 6,2 1,6 16 9 32 18 W 1017,7 10
19.11.2017 04:00:00 7,2 2,0 21 11 - - NW 1017,6 10
19.11.2017 03:00:00 7,0 0,3 16 9 32 18 WNW 1017,4 10
19.11.2017 02:00:00 7,4 0,6 21 11 36 19 WNW 1017,0 10
19.11.2017 01:00:00 7,9 2,7 21 11 - - WNW 1017,2 10
19.11.2017 00:00:00 7,6 4,6 13 7 36 19 W 1017,1 10
18.11.2017 23:00:00 8,3 5,5 16 9 25 14 W 1017,1 10
18.11.2017 22:00:00 8,1 5,5 15 8 - - W 1017,3 10
18.11.2017 21:00:00 7,8 5,5 16 9 25 14 WSW 1017,6 10
18.11.2017 20:00:00 7,8 5,5 16 9 25 14 WSW 1017,8 10
18.11.2017 19:00:00 8,2 5,8 16 9 - - WSW 1018,5 10
18.11.2017 18:00:00 8,4 5,8 13 7 25 14 WSW 1018,6 10
18.11.2017 17:00:00 8,7 5,2 15 8 36 19 WSW 1019,1 10
18.11.2017 16:00:00 8,9 4,7 18 10 - - W 1019,2 10
18.11.2017 15:00:00 8,5 3,8 21 11 36 19 W 1019,6 10

tt = Température de l'air
td = dewpoint
ff = Vitesse du vent
fx = gusts
dd = Direction du vent
ppp = reduced air pressure
vv = visibility

stations d'obs. à proximité